sat.trackr.live / text

‹ back to catalog

STARLINK-5153

NORAD 54088 · 2022-136AP

PAYLOAD ACTIVE UNKNOWN

§ Identity

Operator
Country
US
Launch date
2022-10-20
Launch site
AFETR
Launch vehicle
Mass (kg)
RCS (m²)

Purposes: comms

External: N2YO · Heavens-Above · Gunter

§ Orbital elements

Epoch: 2026-09-20T22:00:03.000096Z

Period
93.93 min
Inclination
53.1605°
Eccentricity
0.0001524
Mean motion
15.33125099 rev/d
Perigee alt
465.5 km
Apogee alt
467.5 km
Semi-major
6,844.6 km
B*
7.0541e-4
RAAN
175.4152°
Arg perigee
107.5948°
Mean anomaly
124.8285°
Rev number
570

§ Raw data

STARLINK-51531 54088U 22136AP  26263.91670139  .00022589  00000+0  70541-3 0  99992 54088  53.1605 175.4152 0001524 107.5948 124.8285 15.33125099  5708

JSON: /api/v1/satellites/54088 · /tle

For live sub-satellite position, see the globe view (requires WebGL).

§ Visibility from observer

Set your observer location to see the next 7 days of passes ≥ 10°. The values pass through the URL so the page stays shareable.

No JS? Fill the form by hand. The geolocation button needs JavaScript.